www.pogodaiklimat.ru

Погода и климат >> Архив погоды >> Россия >> Якутия >> Амга


ПОГОДА в Амге

  • Прогноз погоды в Амге
  • Монитор погоды в Амге
  • Климат города

АРХИВ ПОГОДЫ в Амге

Время (UTC), дата Ветер
(напр.,м/с)
 
Видим.   Явления Облачность Т
(С)
Тd
(С)
f
(%)
Тe
(С)
Тes
(С)
Комфортность P
(гПа)
Po
(гПа)
Тmin
(С)
Tmax
(С)
R
(мм)
R24
(мм)
S
(см)
12 11.12 штиль 0 4000 м дымка ясно -41.0 -44.4 69 -41 -41 опасность
обморожения
1048.7 1026.4 -38.3
15 11.12 ЮЗ 1 4000 м дымка ясно -41.8 -45.0 71 -47 -47 опасность
обморожения
1047.4 1025.0
18 11.12 штиль 0 4000 м дымка ясно -43.2 -46.2 72 -43 -43 опасность
обморожения
1047.5 1025.0
21 11.12 штиль 0 4000 м дымка ясно -43.0 -46.9 65 -43 -43 опасность
обморожения
1046.9 1024.4
00 12.12 штиль 0 4000 м дымка ясно -41.6 -45.0 69 -42 -42 опасность
обморожения
1046.3 1023.9 -43.2 20
03 12.12 ЮЗ 1 4000 м дымка 10/0
[Ci fib]
-39.9 -43.4 69 -45 -45 опасность
обморожения
1045.2 1023.0
06 12.12 штиль 0 4000 м слабый снег 10/0
[Ac trans Cs]
-39.0 -42.5 69 -39 -39 опасность
обморожения
1045.1 1023.0
09 12.12 штиль 0 20 км {снег} 10/0
[Ac trans Ci fib]
-39.5 -42.9 70 -40 -40 опасность
обморожения
1045.4 1023.2
12 12.12 штиль 0 20 км слабый снег 10/0
[Ac As]
-38.8 -42.5 68 -39 -39 опасность
обморожения
1045.1 1023.0 -38.8 0.0
15 12.12 штиль 0 20 км слабый снег 10/0
[Ac As]
-38.2 -41.6 70 -38 -38 опасность
обморожения
1044.9 1022.8
18 12.12 штиль 0 20 км слабый снег 10/0
[Ac trans Cs]
-40.3 -43.9 68 -40 -40 опасность
обморожения
1044.9 1022.7
21 12.12 штиль 0 20 км дымка {снег} 6/0
[Ci fib]
-40.4 -43.9 69 -40 -40 опасность
обморожения
1045.0 1022.8
00 13.12 штиль 0 4000 м дымка {снег} 10/0
[Ac trans Ci fib]
-42.3 -45.6 70 -42 -42 опасность
обморожения
1045.0 1022.7 -42.3 0.0 20
03 13.12 штиль 0 500 м туман 10/0
[Ac trans Ci fib]
-42.1 -45.6 68 -42 -42 опасность
обморожения
1044.0 1021.7
06 13.12 штиль 0 20 км в посл. час туман 10/0
[Ac trans Ci fib]
-41.9 -45.0 72 -42 -42 опасность
обморожения
1043.3 1021.0
09 13.12 СЗ 1 4000 м дымка 10/0
[Ac trans Ci fib]
-42.2 -45.6 69 -48 -48 опасность
обморожения
1042.9 1020.6
12 13.12 штиль 0 4000 м дымка 10/0
[Ci fib]
-43.4 -46.9 68 -43 -43 опасность
обморожения
1041.7 1019.3 -41.9
15 13.12 штиль 0 4000 м дымка 10/0
[Ci fib]
-43.6 -46.9 70 -44 -44 опасность
обморожения
1041.1 1018.6
18 13.12 штиль 0 4000 м дымка 10/0
[Ci fib]
-43.9 -46.9 72 -44 -44 опасность
обморожения
1040.4 1017.9
21 13.12 штиль 0 4000 м дымка 10/0
[Ac trans Ci fib]
-43.0 -46.2 71 -43 -43 опасность
обморожения
1039.1 1016.8
00 14.12 штиль 0 1000 м дымка 1/0
[Ci fib]
-41.9 -45.0 72 -42 -42 опасность
обморожения
1038.2 1016.0 -43.9 20
03 14.12 штиль 0 2000 м дымка 8/0
[Ac As Ci fib]
-39.9 -43.4 69 -40 -40 опасность
обморожения
1037.0 1015.0
06 14.12 В 1 4000 м дымка 8/0
[Ac As Ci sp]
-37.2 -40.8 69 -42 -42 опасность
обморожения
1035.7 1014.0
09 14.12 СВ 1 20 км 8/0
[Ac As Ci fib]
-37.3 -40.8 70 -42 -42 опасность
обморожения
1035.6 1013.9
12 14.12 штиль 0 20 км 10/0
[Ci fib]
-36.6 -40.1 70 -37 -37 опасность
обморожения
1035.4 1013.7 -36.6
15 14.12 штиль 0 20 км 10/0
[Ci fib]
-36.5 -40.1 69 -37 -37 опасность
обморожения
1035.1 1013.4
18 14.12 штиль 0 10 км 6/0
[Ci fib]
-37.7 -41.2 70 -38 -38 опасность
обморожения
1035.3 1013.5
21 14.12 штиль 0 10 км слабый снег 6/0
[Ci fib]
-38.4 -42.0 69 -38 -38 опасность
обморожения
1034.9 1013.1
00 15.12 штиль 0 4000 м дымка {снег} 4/0
[Ci fib]
-39.1 -42.5 70 -39 -39 опасность
обморожения
1034.8 1012.9 -39.2 0.0 20
03 15.12 штиль 0 4000 м слабый снег 10/0
[Cs]
-36.3 -39.7 71 -36 -36 опасность
обморожения
1033.3 1011.8
06 15.12 штиль 0 4000 м дымка {снег} 10/0
[Ci fib]
-34.2 -37.8 70 -34 -34 опасность
обморожения
1032.6 1011.3
09 15.12 ЮЗ 3 20 км слабый снег 10/0
[Cs]
-35.2 -38.7 70 -46 -46 опасность
обморожения
1032.0 1010.6
12 15.12 ЮЗ 1 20 км {снег} 4/0
[Ci fib]
-35.4 -39.0 69 -40 -40 опасность
обморожения
1031.6 1010.2 -34.2 0.4
15 15.12 штиль 0 20 км ясно -38.7 -42.0 71 -39 -39 опасность
обморожения
1031.3 1009.5
18 15.12 штиль 0 20 км ясно -38.5 -42.0 69 -39 -39 опасность
обморожения
1030.7 1008.9
21 15.12 штиль 0 4000 м дымка ясно -39.4 -42.9 69 -39 -39 опасность
обморожения
1029.3 1007.5
00 16.12 ЮЗ 1 4000 м дымка ясно -39.3 -42.9 68 -44 -44 опасность
обморожения
1028.3 1006.6 -39.4 20
03 16.12 штиль 0 4000 м слабый снег 10/0
[Cs]
-37.4 -40.8 70 -37 -37 опасность
обморожения
1027.2 1005.7 -40.1
06 16.12 штиль 0 10 км слабый снег 10/0
[Cs]
-36.3 -39.7 71 -36 -36 опасность
обморожения
1026.2 1004.8
09 16.12 ЮЗ 1 10 км слабый снег 10/0
[Cs]
-34.8 -38.4 70 -39 -39 опасность
обморожения
1025.3 1004.0
12 16.12 штиль 0 10 км слабый снег 10/0
[Cs]
-35.3 -39.0 69 -35 -35 опасность
обморожения
1025.0 1003.7 -34.8 0.3
15 16.12 штиль 0 20 км слабый снег 10/0
[Cs]
-34.1 -37.1 74 -34 -34 опасность
обморожения
1023.9 1002.7
18 16.12 штиль 0 20 км слабый снег 10/0
[Ac As]
-32.9 -35.8 75 -33 -33 опасность
обморожения
1022.7 1001.7
21 16.12 СВ 1 20 км слабый снег 10/0
[Ac As]
-32.4 -36.2 69 -37 -37 опасность
обморожения
1022.0 1001.1
00 17.12 штиль 0 20 км {снег} 10/0
[Ac trans Ci fib]
-36.3 -39.7 71 -36 -36 опасность
обморожения
1022.4 1001.1 -36.3 0.3 20
03 17.12 С 2 50 км 10/0
[Ac trans Ci fib]
-37.1 -40.8 68 -46 -46 опасность
обморожения
1022.6 1001.2 -37.1
06 17.12 штиль 0 20 км 10/0
[Ac trans Ci fib]
-38.2 -41.6 70 -38 -38 опасность
обморожения
1023.2 1001.7
09 17.12 штиль 0 20 км 10/0
[Ac trans Ci fib]
-39.9 -43.4 69 -40 -40 опасность
обморожения
1024.2 1002.6
12 17.12 штиль 0 20 км слабый снег 10/0
[Cs]
-40.7 -43.9 71 -41 -41 опасность
обморожения
1025.1 1003.3 -36.3 0.0
15 17.12 штиль 0 20 км слабый снег 10/0
[Cs]
-40.1 -43.4 70 -40 -40 опасность
обморожения
1025.5 1003.8
18 17.12 З 1 20 км слабый снег 10/0
[Cs]
-42.7 -46.2 68 -48 -48 опасность
обморожения
1026.4 1004.4
21 17.12 штиль 0 20 км слабый снег 10/0
[Ac As]
-44.6 -47.6 72 -45 -45 опасность
обморожения
1027.5 1005.3
00 18.12 штиль 0 500 м туман {снег} 4/0
[Ci fib]
-44.4 -47.6 70 -44 -44 опасность
обморожения
1028.0 1005.9 -44.9 0.2 21
03 18.12 штиль 0 500 м туман 4/0
[Ci fib]
-42.8 -46.2 69 -43 -43 опасность
обморожения
1027.4 1005.4
06 18.12 штиль 0 500 м туман 10/0
[Ci fib]
-41.4 -45.0 68 -41 -41 опасность
обморожения
1026.7 1004.9
09 18.12 штиль 0 1000 м в посл. час туман 10/0
[Ci fib]
-41.0 -44.4 69 -41 -41 опасность
обморожения
1026.2 1004.4

 

Местоположение метеостанции Амга (Якутия, Россия): широта 60.90 долгота 131.90 высота над уровнем моря 146 м.

В архиве по умолчанию представлена погода в Амге за последнюю неделю. Архивные данные за месяц целиком и за предыдущие месяцы, начиная с января 2011 года, Вы можете получить, выбрав интересующий диапазон дат из раскрывающегося списка и нажав кнопку "Ввод!".

Внимание! Время в таблицах - всемирное. Для получения местного времени необходимо прибавить поправку, которая в Амге равна 9 ч.

Смотрите также архив погоды в соседних городах и на ближайших метеорологических станциях:

Погода в Тегюльте (Якутия, Россия) (114 км)
Погода в Чурапче (Якутия, Россия) (131 км)
Погода в Усть-Мае (Якутия, Россия) (149 км)
Погода в Усть-Миле (Якутия, Россия) (154 км)
Погода в Покровске (Якутия, Россия) (163 км)
Погода в Якутске (Якутия, Россия) (173 км)
Погода в Ытык-Кюёле (Якутия, Россия) (184 км)
Погода в Охотском Перевозе (Якутия, Россия) (220 км)
Погода в Намцах (Якутия, Россия) (236 км)
Погода в Крест-Хальджае (Якутия, Россия) (251 км)

Пояснения к столбцам:

Ветер - указаны скорость ветра в м/с - средняя за 10 мин, порывы в срок и между сроками (в фигурных скобках) и направление, откуда дует ветер: С - северный, СВ - северо-восточный, В - восточный, ЮВ - юго-восточный, Ю - южный, ЮЗ - юго-западный, З - западный, СЗ - северо-западный.
Видимость - горизонтальная дальность видимости в метрах или километрах. При видимости от 1 до 10 км при отсутствии осадков обычно наблюдается дымка, при ухудшении видимости до 1 км и менее - туман. В сухую погоду видимость может ухудшаться дымом, пылью или мглою.
Явления - указаны атмосферные явления, наблюдавшиеся в срок или в последний час перед сроком; фигурными скобками обозначены явления, наблюдавшиеся между сроками (за 1-3 часа до срока); квадратными скобками обозначены град или гололедные отложения с указанием их диаметра в мм.
Облачность - указаны через наклонную черту общая и нижняя облачность в баллах и высота нижней границы облаков в метрах; квадратными скобками обозначены формы облаков: Ci - перистые, Cs - перисто-слоистые, Cc - перисто-кучевые, Ac - высококучевые, As - высокослоистые, Sc - слоисто-кучевые, Ns - слоисто-дождевые, Cu - кучевые, Cb - кучево-дождевые. Подробнее классификацию облаков см. в Атласе облаков (PDF).
T - Температура воздуха - температура, измеренная на высоте 2 м над землей.
Td - Температура точки росы - температура, при понижении до которой содержащийся в воздухе водяной пар достигнет насыщения.
f - Относительная влажность воздуха - влажноcть воздуха, измеренная на высоте 2 м над землей.
Te - Эффективная температура - температура, которую ощущает одетый по сезону человек в тени. Характеристика душности погоды. При расчете учитывается влияние влажности воздуха и скорости ветра на теплоощущения человека.
Tes - Эффективная температура на солнце - температура, которую ощущает человек, с поправкой на солнечный нагрев. Характеристика знойности погоды. Зависит от высоты солнца над горизонтом, облачности и скорости ветра. Ночью, в пасмурную погоду, а также при ветре 12 м/с и более поправка равна нулю.
P - Атмосферное давление - приведенное к уровню моря атмосферное давление.
Po - Атмосферное давление - измеренное на уровне метеостанции атмосферное давление.
Tmin - Минимальная температура - минимум температуры воздуха на высоте 2 м над землей.
Tmax - Максимальная температура - максимум температуры воздуха на высоте 2 м над землей.
R - Количество осадков - Количество выпавших осадков за период времени, мм. При наведении курсора мыши на число - период времени, за который выпало указанное количество осадков.
R24 - Количество осадков - Количество выпавших осадков за 24 часа, мм.
S - Снежный покров - Высота снежного покрова, см. При наведении курсора мыши на число - состояние снежного покрова и степень покрытия местности в баллах.